Time,TemperatureF,DewpointF,PressureIn,WindDirection,WindDirectionDegrees,WindSpeedMPH,WindSpeedGustMPH,Humidity,HourlyPrecipIn,Conditions,Clouds,dailyrainin,SoftwareType,DateUTC
2013-11-17 00:03:00,31.3,26.1,29.42,South,184,0.0,0.0,81,0.00,,,0.00,WeatherDisplay:10.34,2013-11-17 07:03:00,
2013-11-17 00:08:00,31.3,26.1,29.42,South,183,0.0,0.0,81,0.00,,,0.00,WeatherDisplay:10.34,2013-11-17 07:08:00,
2013-11-17 00:13:00,31.1,26.0,29.43,South,184,0.0,0.0,81,0.00,,,0.00,WeatherDisplay:10.34,2013-11-17 07:13:00,
2013-11-17 00:18:00,31.0,25.2,29.43,SSW,203,0.0,0.0,79,0.00,,,0.00,WeatherDisplay:10.34,2013-11-17 07:18:00,
2013-11-17 00:23:00,31.5,23.8,29.43,SSE,158,1.0,2.0,73,0.00,,,0.00,WeatherDisplay:10.34,2013-11-17 07:23:00,
2013-11-17 00:28:00,32.0,23.0,29.43,West,263,0.0,1.0,69,0.00,,,0.00,WeatherDisplay:10.34,2013-11-17 07:28:00,
2013-11-17 00:33:00,32.2,22.1,29.43,West,263,0.0,0.0,66,0.00,,,0.00,WeatherDisplay:10.34,2013-11-17 07:33:00,
2013-11-17 00:38:00,32.4,21.9,29.43,SW,236,0.0,0.0,65,0.00,,,0.00,WeatherDisplay:10.34,2013-11-17 07:38:00,
2013-11-17 00:43:00,32.4,21.6,29.44,WSW,237,0.0,0.0,64,0.00,,,0.00,WeatherDisplay:10.34,2013-11-17 07:43:00,
2013-11-17 00:48:00,32.4,21.2,29.45,WSW,237,0.0,0.0,63,0.00,,,0.00,WeatherDisplay:10.34,2013-11-17 07:48:00,
2013-11-17 00:53:00,32.3,20.7,29.45,WSW,250,0.0,0.0,62,0.00,,,0.00,WeatherDisplay:10.34,2013-11-17 07:53:00,
2013-11-17 00:58:00,32.2,20.2,29.45,WSW,252,0.0,1.0,61,0.00,,,0.00,WeatherDisplay:10.34,2013-11-17 07:58:00,
2013-11-17 01:03:00,32.0,20.1,29.45,WSW,252,0.0,0.0,61,0.00,,,0.00,WeatherDisplay:10.34,2013-11-17 08:03:00,
2013-11-17 01:08:00,31.7,19.4,29.45,NE,40,2.0,2.0,60,0.00,,,0.00,WeatherDisplay:10.34,2013-11-17 08:08:00,
2013-11-17 01:13:00,31.4,18.7,29.46,NE,38,1.0,2.0,59,0.00,,,0.00,WeatherDisplay:10.34,2013-11-17 08:13:00,
2013-11-17 01:18:00,31.1,18.4,29.46,NE,39,0.0,1.0,59,0.00,,,0.00,WeatherDisplay:10.34,2013-11-17 08:18:00,
2013-11-17 01:23:00,30.9,17.8,29.47,NNW,345,1.0,3.0,58,0.00,,,0.00,WeatherDisplay:10.34,2013-11-17 08:23:00,
2013-11-17 01:28:00,30.8,17.7,29.47,NNW,345,1.0,2.0,58,0.00,,,0.00,WeatherDisplay:10.34,2013-11-17 08:28:00,
2013-11-17 01:33:00,30.3,17.7,29.47,WNW,293,1.0,2.0,59,0.00,,,0.00,WeatherDisplay:10.34,2013-11-17 08:33:00,
2013-11-17 01:38:00,30.0,17.8,29.47,South,191,0.0,0.0,60,0.00,,,0.00,WeatherDisplay:10.34,2013-11-17 08:38:00,
2013-11-17 01:43:00,29.9,17.7,29.48,South,190,0.0,0.0,60,0.00,,,0.00,WeatherDisplay:10.34,2013-11-17 08:43:00,
2013-11-17 01:48:00,29.7,17.1,29.48,SE,128,0.0,1.0,59,0.00,,,0.00,WeatherDisplay:10.34,2013-11-17 08:48:00,
2013-11-17 01:53:00,29.8,17.2,29.49,SE,126,0.0,0.0,59,0.00,,,0.00,WeatherDisplay:10.34,2013-11-17 08:53:00,
2013-11-17 01:58:00,29.8,16.8,29.49,SE,126,1.0,2.0,58,0.00,,,0.00,WeatherDisplay:10.34,2013-11-17 08:58:00,
2013-11-17 02:03:00,29.7,16.7,29.49,WSW,237,0.0,1.0,58,0.00,,,0.00,WeatherDisplay:10.34,2013-11-17 09:03:00,
2013-11-17 02:08:00,29.6,16.6,29.49,West,267,0.0,1.0,58,0.00,,,0.00,WeatherDisplay:10.34,2013-11-17 09:08:00,
2013-11-17 02:13:00,29.5,16.5,29.49,West,267,0.0,0.0,58,0.00,,,0.00,WeatherDisplay:10.34,2013-11-17 09:13:00,
2013-11-17 02:18:00,29.4,16.4,29.49,West,267,0.0,0.0,58,0.00,,,0.00,WeatherDisplay:10.34,2013-11-17 09:18:00,
2013-11-17 02:23:00,29.1,16.1,29.50,West,262,2.0,2.0,58,0.00,,,0.00,WeatherDisplay:10.34,2013-11-17 09:23:00,
2013-11-17 02:28:00,28.8,15.5,29.50,West,272,6.0,7.0,57,0.00,,,0.00,WeatherDisplay:10.34,2013-11-17 09:28:00,
2013-11-17 02:33:00,29.2,15.0,29.50,WSW,239,7.0,13.0,55,0.00,,,0.00,WeatherDisplay:10.34,2013-11-17 09:33:00,
2013-11-17 02:38:00,29.9,15.3,29.50,SW,232,12.0,13.0,54,0.00,,,0.00,WeatherDisplay:10.34,2013-11-17 09:38:00,
2013-11-17 02:43:00,30.5,15.4,29.51,WSW,237,13.0,14.0,53,0.00,,,0.00,WeatherDisplay:10.34,2013-11-17 09:43:00,
2013-11-17 02:48:00,30.6,15.0,29.52,SW,225,10.0,13.0,52,0.00,,,0.00,WeatherDisplay:10.34,2013-11-17 09:48:00,
2013-11-17 02:53:00,30.7,14.7,29.52,West,280,8.0,8.0,51,0.00,,,0.00,WeatherDisplay:10.34,2013-11-17 09:53:00,
2013-11-17 02:58:00,31.0,14.5,29.52,WSW,249,12.0,12.0,50,0.00,,,0.00,WeatherDisplay:10.34,2013-11-17 09:58:00,
2013-11-17 03:03:00,31.3,14.8,29.52,SW,225,9.0,9.0,50,0.00,,,0.00,WeatherDisplay:10.34,2013-11-17 10:03:00,
2013-11-17 03:08:00,31.2,14.7,29.52,SW,225,12.0,13.0,50,0.00,,,0.00,WeatherDisplay:10.34,2013-11-17 10:08:00,
2013-11-17 03:13:00,31.1,14.6,29.53,WSW,252,11.0,13.0,50,0.00,,,0.00,WeatherDisplay:10.34,2013-11-17 10:13:00,
2013-11-17 03:18:00,30.8,14.8,29.53,WSW,245,15.0,15.0,51,0.00,,,0.00,WeatherDisplay:10.34,2013-11-17 10:18:00,
2013-11-17 03:23:00,30.6,14.6,29.54,SW,229,14.0,15.0,51,0.00,,,0.00,WeatherDisplay:10.34,2013-11-17 10:23:00,
2013-11-17 03:28:00,30.6,14.6,29.55,SW,232,15.0,16.0,51,0.00,,,0.00,WeatherDisplay:10.34,2013-11-17 10:28:00,
2013-11-17 03:33:00,30.6,14.6,29.55,SW,234,12.0,12.0,51,0.00,,,0.00,WeatherDisplay:10.34,2013-11-17 10:33:00,
2013-11-17 03:38:00,30.5,14.5,29.55,WSW,246,11.0,12.0,51,0.00,,,0.00,WeatherDisplay:10.34,2013-11-17 10:38:00,
2013-11-17 03:43:00,30.5,14.5,29.55,SW,221,11.0,11.0,51,0.00,,,0.00,WeatherDisplay:10.34,2013-11-17 10:43:00,
2013-11-17 03:48:00,30.5,14.0,29.55,SW,219,12.0,12.0,50,0.00,,,0.00,WeatherDisplay:10.34,2013-11-17 10:48:00,
2013-11-17 03:53:00,30.4,14.0,29.56,SW,218,13.0,13.0,50,0.00,,,0.00,WeatherDisplay:10.34,2013-11-17 10:53:00,
2013-11-17 03:58:00,30.2,13.8,29.56,SW,225,11.0,12.0,50,0.00,,,0.00,WeatherDisplay:10.34,2013-11-17 10:58:00,
2013-11-17 04:03:00,30.0,13.6,29.57,SSW,206,15.0,15.0,50,0.00,,,0.00,WeatherDisplay:10.34,2013-11-17 11:03:00,
2013-11-17 04:08:00,30.1,13.7,29.57,SSW,213,14.0,15.0,50,0.00,,,0.00,WeatherDisplay:10.34,2013-11-17 11:08:00,
2013-11-17 04:13:00,30.4,13.5,29.58,SW,215,15.0,15.0,49,0.00,,,0.00,WeatherDisplay:10.34,2013-11-17 11:13:00,
2013-11-17 04:18:00,30.7,12.8,29.58,SW,234,20.0,20.0,47,0.00,,,0.00,WeatherDisplay:10.34,2013-11-17 11:18:00,
2013-11-17 04:23:00,31.1,13.2,29.58,SSW,212,12.0,12.0,47,0.00,,,0.00,WeatherDisplay:10.34,2013-11-17 11:23:00,
2013-11-17 04:28:00,31.2,13.3,29.58,SSW,206,13.0,13.0,47,0.00,,,0.00,WeatherDisplay:10.34,2013-11-17 11:28:00,
2013-11-17 04:33:00,30.7,13.3,29.58,SSW,207,14.0,14.0,48,0.00,,,0.00,WeatherDisplay:10.34,2013-11-17 11:33:00,
2013-11-17 04:38:00,30.6,13.2,29.58,SW,214,14.0,14.0,48,0.00,,,0.00,WeatherDisplay:10.34,2013-11-17 11:38:00,
2013-11-17 04:43:00,30.5,13.1,29.59,SSW,204,15.0,15.0,48,0.00,,,0.00,WeatherDisplay:10.34,2013-11-17 11:43:00,
2013-11-17 04:48:00,30.3,12.9,29.59,SSW,202,12.0,13.0,48,0.00,,,0.00,WeatherDisplay:10.34,2013-11-17 11:48:00,
2013-11-17 04:53:00,30.0,13.1,29.59,SSW,205,11.0,12.0,49,0.00,,,0.00,WeatherDisplay:10.34,2013-11-17 11:53:00,
2013-11-17 04:58:00,29.6,12.8,29.59,South,191,12.0,12.0,49,0.00,,,0.00,WeatherDisplay:10.34,2013-11-17 11:58:00,
2013-11-17 05:03:00,29.5,12.7,29.59,SW,216,10.0,10.0,49,0.00,,,0.00,WeatherDisplay:10.34,2013-11-17 12:03:00,
2013-11-17 05:08:00,29.6,12.3,29.59,SW,223,13.0,13.0,48,0.00,,,0.00,WeatherDisplay:10.34,2013-11-17 12:08:00,
2013-11-17 05:13:00,29.7,12.4,29.60,SW,229,8.0,12.0,48,0.00,,,0.00,WeatherDisplay:10.34,2013-11-17 12:13:00,
2013-11-17 05:18:00,30.1,12.3,29.60,SW,223,12.0,14.0,47,0.00,,,0.00,WeatherDisplay:10.34,2013-11-17 12:18:00,
2013-11-17 05:23:00,30.6,12.2,29.60,WSW,252,15.0,21.0,46,0.00,,,0.00,WeatherDisplay:10.34,2013-11-17 12:23:00,
2013-11-17 05:28:00,31.0,12.6,29.60,WSW,252,12.0,14.0,46,0.00,,,0.00,WeatherDisplay:10.34,2013-11-17 12:28:00,
2013-11-17 05:33:00,31.1,12.7,29.61,WSW,240,11.0,14.0,46,0.00,,,0.00,WeatherDisplay:10.34,2013-11-17 12:33:00,
2013-11-17 05:38:00,31.0,13.1,29.61,WSW,250,9.0,13.0,47,0.00,,,0.00,WeatherDisplay:10.34,2013-11-17 12:38:00,
2013-11-17 05:43:00,30.7,12.8,29.61,SW,226,8.0,12.0,47,0.00,,,0.00,WeatherDisplay:10.34,2013-11-17 12:43:00,
2013-11-17 05:48:00,30.5,13.1,29.61,SW,223,14.0,14.0,48,0.00,,,0.00,WeatherDisplay:10.34,2013-11-17 12:48:00,
2013-11-17 05:53:00,30.3,12.5,29.62,SW,220,12.0,14.0,47,0.00,,,0.00,WeatherDisplay:10.34,2013-11-17 12:53:00,
2013-11-17 05:58:00,30.4,12.5,29.63,West,260,10.0,10.0,47,0.00,,,0.00,WeatherDisplay:10.34,2013-11-17 12:58:00,
2013-11-17 06:03:00,30.5,12.2,29.63,WSW,252,8.0,10.0,46,0.00,,,0.00,WeatherDisplay:10.34,2013-11-17 13:03:00,
2013-11-17 06:08:00,30.7,11.8,29.63,West,271,11.0,14.0,45,0.00,,,0.00,WeatherDisplay:10.34,2013-11-17 13:08:00,
2013-11-17 06:13:00,31.3,11.9,29.62,West,264,13.0,14.0,44,0.00,,,0.00,WeatherDisplay:10.34,2013-11-17 13:13:00,
2013-11-17 06:18:00,31.6,12.2,29.62,WSW,244,11.0,14.0,44,0.00,,,0.00,WeatherDisplay:10.34,2013-11-17 13:18:00,
2013-11-17 06:23:00,31.7,12.8,29.63,SW,229,18.0,18.0,45,0.00,,,0.00,WeatherDisplay:10.34,2013-11-17 13:23:00,
2013-11-17 06:28:00,31.8,12.3,29.63,WSW,244,17.0,21.0,44,0.00,,,0.00,WeatherDisplay:10.34,2013-11-17 13:28:00,
2013-11-17 06:33:00,32.1,12.6,29.64,WSW,240,13.0,14.0,44,0.00,,,0.00,WeatherDisplay:10.34,2013-11-17 13:33:00,
2013-11-17 06:38:00,31.9,12.4,29.64,WSW,241,7.0,9.0,44,0.00,,,0.00,WeatherDisplay:10.34,2013-11-17 13:38:00,
2013-11-17 06:43:00,31.8,12.3,29.65,SW,226,3.0,3.0,44,0.00,,,0.00,WeatherDisplay:10.34,2013-11-17 13:43:00,
2013-11-17 06:48:00,31.5,12.6,29.65,SSW,211,4.0,5.0,45,0.00,,,0.00,WeatherDisplay:10.34,2013-11-17 13:48:00,
2013-11-17 06:53:00,31.2,12.3,29.65,WSW,238,7.0,9.0,45,0.00,,,0.00,WeatherDisplay:10.34,2013-11-17 13:53:00,
2013-11-17 06:58:00,31.0,12.1,29.65,SW,227,15.0,17.0,45,0.00,,,0.00,WeatherDisplay:10.34,2013-11-17 13:58:00,
2013-11-17 07:03:00,31.4,12.0,29.65,SW,229,20.0,24.0,44,0.00,OVC,OVC,0.00,WeatherDisplay:10.34,2013-11-17 14:03:00,
2013-11-17 07:08:00,31.9,12.4,29.65,SW,229,14.0,14.0,44,0.00,OVC,OVC,0.00,WeatherDisplay:10.34,2013-11-17 14:08:00,
2013-11-17 07:13:00,31.8,12.3,29.66,SW,231,21.0,26.0,44,0.00,OVC,OVC,0.00,WeatherDisplay:10.34,2013-11-17 14:13:00,
2013-11-17 07:18:00,32.0,12.0,29.66,SW,232,12.0,13.0,43,0.00,OVC,OVC,0.00,WeatherDisplay:10.34,2013-11-17 14:18:00,
2013-11-17 07:23:00,31.7,12.8,29.67,SW,230,14.0,14.0,45,0.00,OVC,OVC,0.00,WeatherDisplay:10.34,2013-11-17 14:23:00,
2013-11-17 07:28:00,31.2,12.3,29.68,SW,228,9.0,10.0,45,0.00,OVC,OVC,0.00,WeatherDisplay:10.34,2013-11-17 14:28:00,
2013-11-17 07:33:00,30.8,12.4,29.68,WSW,238,9.0,12.0,46,0.00,OVC,OVC,0.00,WeatherDisplay:10.34,2013-11-17 14:33:00,
2013-11-17 07:38:00,30.6,12.7,29.68,SW,236,8.0,9.0,47,0.00,OVC,OVC,0.00,WeatherDisplay:10.34,2013-11-17 14:38:00,
2013-11-17 07:43:00,30.3,12.9,29.69,SW,220,10.0,12.0,48,0.00,OVC,OVC,0.00,WeatherDisplay:10.34,2013-11-17 14:43:00,
2013-11-17 07:48:00,30.3,12.9,29.69,SW,232,12.0,12.0,48,0.00,OVC,OVC,0.00,WeatherDisplay:10.34,2013-11-17 14:48:00,
2013-11-17 07:53:00,30.4,13.0,29.69,SW,227,8.0,9.0,48,0.00,OVC,OVC,0.00,WeatherDisplay:10.34,2013-11-17 14:53:00,
2013-11-17 07:58:00,30.5,13.1,29.69,SW,232,3.0,3.0,48,0.00,CLR,CLR,0.00,WeatherDisplay:10.34,2013-11-17 14:58:00,
2013-11-17 08:03:00,30.8,13.4,29.69,SW,225,4.0,7.0,48,0.00,CLR,CLR,0.00,WeatherDisplay:10.34,2013-11-17 15:03:00,
2013-11-17 08:08:00,31.1,13.7,29.69,SW,219,6.0,8.0,48,0.00,CLR,CLR,0.00,WeatherDisplay:10.34,2013-11-17 15:08:00,
2013-11-17 08:13:00,31.5,13.6,29.70,WSW,240,2.0,3.0,47,0.00,CLR,CLR,0.00,WeatherDisplay:10.34,2013-11-17 15:13:00,
2013-11-17 08:18:00,32.0,13.0,29.70,WSW,238,7.0,8.0,45,0.00,CLR,CLR,0.00,WeatherDisplay:10.34,2013-11-17 15:18:00,
2013-11-17 08:23:00,32.7,13.2,29.70,SW,221,0.0,1.0,44,0.00,CLR,CLR,0.00,WeatherDisplay:10.34,2013-11-17 15:23:00,
2013-11-17 08:28:00,33.4,14.3,29.70,SW,221,2.0,2.0,45,0.00,CLR,CLR,0.00,WeatherDisplay:10.34,2013-11-17 15:28:00,
2013-11-17 08:33:00,34.0,14.3,29.71,SW,221,0.0,1.0,44,0.00,CLR,CLR,0.00,WeatherDisplay:10.34,2013-11-17 15:33:00,
2013-11-17 08:38:00,34.4,15.2,29.71,SE,138,4.0,4.0,45,0.00,CLR,CLR,0.00,WeatherDisplay:10.34,2013-11-17 15:38:00,
2013-11-17 08:43:00,34.7,13.9,29.72,South,184,12.0,12.0,42,0.00,CLR,CLR,0.00,WeatherDisplay:10.34,2013-11-17 15:43:00,
2013-11-17 08:48:00,34.0,14.3,29.72,South,186,12.0,13.0,44,0.00,CLR,CLR,0.00,WeatherDisplay:10.34,2013-11-17 15:48:00,
2013-11-17 08:53:00,33.7,14.1,29.72,South,191,11.0,11.0,44,0.00,CLR,CLR,0.00,WeatherDisplay:10.34,2013-11-17 15:53:00,
2013-11-17 08:58:00,33.8,14.2,29.72,SSE,167,10.0,10.0,44,0.00,CLR,CLR,0.00,WeatherDisplay:10.34,2013-11-17 15:58:00,
2013-11-17 09:03:00,34.1,14.9,29.72,South,184,7.0,8.0,45,0.00,CLR,CLR,0.00,WeatherDisplay:10.34,2013-11-17 16:03:00,
2013-11-17 09:08:00,34.4,15.2,29.72,SSW,193,8.0,10.0,45,0.00,CLR,CLR,0.00,WeatherDisplay:10.34,2013-11-17 16:08:00,
2013-11-17 09:13:00,34.4,15.7,29.73,South,187,6.0,6.0,46,0.00,CLR,CLR,0.00,WeatherDisplay:10.34,2013-11-17 16:13:00,
2013-11-17 09:18:00,34.6,15.9,29.73,South,177,8.0,8.0,46,0.00,CLR,CLR,0.00,WeatherDisplay:10.34,2013-11-17 16:18:00,
2013-11-17 09:23:00,35.3,16.0,29.74,SSW,198,7.0,9.0,45,0.00,CLR,CLR,0.00,WeatherDisplay:10.34,2013-11-17 16:23:00,
2013-11-17 09:28:00,36.0,15.1,29.74,SSW,213,7.0,8.0,42,0.00,CLR,CLR,0.00,WeatherDisplay:10.34,2013-11-17 16:28:00,
2013-11-17 09:33:00,36.6,13.9,29.74,SSW,203,6.0,7.0,39,0.00,CLR,CLR,0.00,WeatherDisplay:10.34,2013-11-17 16:33:00,
2013-11-17 09:38:00,37.1,13.8,29.74,SSW,204,4.0,7.0,38,0.00,CLR,CLR,0.00,WeatherDisplay:10.34,2013-11-17 16:38:00,
2013-11-17 09:43:00,37.7,14.3,29.74,South,180,5.0,5.0,38,0.00,CLR,CLR,0.00,WeatherDisplay:10.34,2013-11-17 16:43:00,
2013-11-17 09:48:00,38.0,14.0,29.74,SSW,201,7.0,7.0,37,0.00,CLR,CLR,0.00,WeatherDisplay:10.34,2013-11-17 16:48:00,
2013-11-17 09:53:00,38.4,14.4,29.75,SW,215,5.0,5.0,37,0.00,CLR,CLR,0.00,WeatherDisplay:10.34,2013-11-17 16:53:00,
2013-11-17 09:58:00,38.7,14.6,29.75,South,169,4.0,5.0,37,0.00,CLR,CLR,0.00,WeatherDisplay:10.34,2013-11-17 16:58:00,
2013-11-17 10:03:00,39.0,14.3,29.75,SSW,200,1.0,1.0,36,0.00,CLR,CLR,0.00,WeatherDisplay:10.34,2013-11-17 17:03:00,
2013-11-17 10:08:00,39.7,14.2,29.75,SSW,195,9.0,9.0,35,0.00,CLR,CLR,0.00,WeatherDisplay:10.34,2013-11-17 17:08:00,
2013-11-17 10:13:00,40.2,14.0,29.75,North,360,4.0,7.0,34,0.00,CLR,CLR,0.00,WeatherDisplay:10.34,2013-11-17 17:13:00,
2013-11-17 10:18:00,40.6,14.4,29.75,South,175,9.0,9.0,34,0.00,CLR,CLR,0.00,WeatherDisplay:10.34,2013-11-17 17:18:00,
2013-11-17 10:23:00,40.3,14.8,29.76,South,179,10.0,12.0,35,0.00,CLR,CLR,0.00,WeatherDisplay:10.34,2013-11-17 17:23:00,
2013-11-17 10:28:00,40.2,14.0,29.76,SW,221,5.0,8.0,34,0.00,CLR,CLR,0.00,WeatherDisplay:10.34,2013-11-17 17:28:00,
2013-11-17 10:33:00,40.6,13.7,29.76,SSW,195,0.0,1.0,33,0.00,CLR,CLR,0.00,WeatherDisplay:10.34,2013-11-17 17:33:00,
2013-11-17 10:38:00,40.6,14.4,29.76,South,169,6.0,7.0,34,0.00,CLR,CLR,0.00,WeatherDisplay:10.34,2013-11-17 17:38:00,
2013-11-17 10:43:00,40.7,14.5,29.76,South,172,0.0,1.0,34,0.00,CLR,CLR,0.00,WeatherDisplay:10.34,2013-11-17 17:43:00,
2013-11-17 10:48:00,41.3,15.0,29.76,South,178,0.0,0.0,34,0.00,CLR,CLR,0.00,WeatherDisplay:10.34,2013-11-17 17:48:00,
2013-11-17 10:53:00,42.2,15.8,29.76,SSW,205,1.0,1.0,34,0.00,CLR,CLR,0.00,WeatherDisplay:10.34,2013-11-17 17:53:00,
2013-11-17 10:58:00,42.7,14.8,29.76,SW,229,3.0,5.0,32,0.00,CLR,CLR,0.00,WeatherDisplay:10.34,2013-11-17 17:58:00,
2013-11-17 11:03:00,43.1,15.2,29.76,WSW,254,4.0,4.0,32,0.00,CLR,CLR,0.00,WeatherDisplay:10.34,2013-11-17 18:03:00,
2013-11-17 11:08:00,42.7,14.8,29.76,WSW,255,3.0,3.0,32,0.00,CLR,CLR,0.00,WeatherDisplay:10.34,2013-11-17 18:08:00,
2013-11-17 11:13:00,42.6,15.5,29.76,SW,234,2.0,2.0,33,0.00,CLR,CLR,0.00,WeatherDisplay:10.34,2013-11-17 18:13:00,
2013-11-17 11:18:00,42.8,14.9,29.76,SW,234,0.0,0.0,32,0.00,CLR,CLR,0.00,WeatherDisplay:10.34,2013-11-17 18:18:00,
2013-11-17 11:23:00,42.6,14.0,29.76,SW,227,7.0,9.0,31,0.00,BKN,BKN,0.00,WeatherDisplay:10.34,2013-11-17 18:23:00,
2013-11-17 11:28:00,42.8,15.6,29.76,West,262,7.0,8.0,33,0.00,FEW,FEW,0.00,WeatherDisplay:10.34,2013-11-17 18:28:00,
2013-11-17 11:33:00,42.9,15.0,29.75,West,269,2.0,2.0,32,0.00,CLR,CLR,0.00,WeatherDisplay:10.34,2013-11-17 18:33:00,
2013-11-17 11:38:00,43.0,15.1,29.75,West,261,4.0,9.0,32,0.00,FEW,FEW,0.00,WeatherDisplay:10.34,2013-11-17 18:38:00,
2013-11-17 11:43:00,42.9,15.0,29.75,South,190,8.0,9.0,32,0.00,CLR,CLR,0.00,WeatherDisplay:10.34,2013-11-17 18:43:00,
2013-11-17 11:48:00,42.3,13.8,29.75,SSW,199,3.0,3.0,31,0.00,SCT,SCT,0.00,WeatherDisplay:10.34,2013-11-17 18:48:00,
2013-11-17 11:53:00,42.4,15.3,29.75,WSW,253,6.0,8.0,33,0.00,CLR,CLR,0.00,WeatherDisplay:10.34,2013-11-17 18:53:00,
2013-11-17 11:58:00,42.4,13.9,29.75,SW,229,0.0,2.0,31,0.00,FEW,FEW,0.00,WeatherDisplay:10.34,2013-11-17 18:58:00,
2013-11-17 12:03:00,42.5,14.7,29.75,SW,233,0.0,0.0,32,0.00,SCT,SCT,0.00,WeatherDisplay:10.34,2013-11-17 19:03:00,
2013-11-17 12:08:00,42.7,14.8,29.75,SW,225,2.0,2.0,32,0.00,CLR,CLR,0.00,WeatherDisplay:10.34,2013-11-17 19:08:00,
2013-11-17 12:13:00,42.9,15.7,29.75,WSW,254,2.0,2.0,33,0.00,BKN,BKN,0.00,WeatherDisplay:10.34,2013-11-17 19:13:00,
2013-11-17 12:18:00,43.0,15.1,29.75,WNW,290,0.0,1.0,32,0.00,BKN,BKN,0.00,WeatherDisplay:10.34,2013-11-17 19:18:00,
2013-11-17 12:23:00,42.8,14.9,29.75,West,260,6.0,7.0,32,0.00,BKN,BKN,0.00,WeatherDisplay:10.34,2013-11-17 19:23:00,
2013-11-17 12:28:00,42.5,15.4,29.75,West,261,0.0,1.0,33,0.00,OVC,OVC,0.00,WeatherDisplay:10.34,2013-11-17 19:28:00,
2013-11-17 12:33:00,42.3,15.2,29.76,West,277,0.0,0.0,33,0.00,OVC,OVC,0.00,WeatherDisplay:10.34,2013-11-17 19:33:00,
2013-11-17 12:38:00,42.2,14.4,29.75,WSW,238,0.0,1.0,32,0.00,BKN,BKN,0.00,WeatherDisplay:10.34,2013-11-17 19:38:00,
2013-11-17 12:43:00,42.1,15.7,29.76,North,355,4.0,5.0,34,0.00,BKN,BKN,0.00,WeatherDisplay:10.34,2013-11-17 19:43:00,
2013-11-17 12:48:00,42.0,15.6,29.76,North,355,4.0,4.0,34,0.00,BKN,BKN,0.00,WeatherDisplay:10.34,2013-11-17 19:48:00,
2013-11-17 12:53:00,41.9,16.2,29.76,NNW,340,3.0,3.0,35,0.00,BKN,BKN,0.00,WeatherDisplay:10.34,2013-11-17 19:53:00,
2013-11-17 12:58:00,41.9,14.8,29.76,NNW,340,4.0,4.0,33,0.00,OVC,OVC,0.00,WeatherDisplay:10.34,2013-11-17 19:58:00,
2013-11-17 13:03:00,41.9,16.2,29.76,WNW,302,3.0,3.0,35,0.00,BKN,BKN,0.00,WeatherDisplay:10.34,2013-11-17 20:03:00,
2013-11-17 13:08:00,41.9,16.2,29.76,NNW,340,6.0,7.0,35,0.00,BKN,BKN,0.00,WeatherDisplay:10.34,2013-11-17 20:08:00,
2013-11-17 13:13:00,41.9,15.5,29.76,NNW,344,6.0,7.0,34,0.00,OVC,OVC,0.00,WeatherDisplay:10.34,2013-11-17 20:13:00,
2013-11-17 13:18:00,42.0,14.9,29.77,NNW,344,0.0,0.0,33,0.00,BKN,BKN,0.00,WeatherDisplay:10.34,2013-11-17 20:18:00,
2013-11-17 13:23:00,42.4,14.6,29.77,SSE,160,11.0,13.0,32,0.00,CLR,CLR,0.00,WeatherDisplay:10.34,2013-11-17 20:23:00,
2013-11-17 13:28:00,43.3,16.1,29.77,West,273,12.0,16.0,33,0.00,CLR,CLR,0.00,WeatherDisplay:10.34,2013-11-17 20:28:00,
2013-11-17 13:33:00,44.4,17.1,29.77,West,279,5.0,7.0,33,0.00,CLR,CLR,0.00,WeatherDisplay:10.34,2013-11-17 20:33:00,
2013-11-17 13:38:00,45.0,16.9,29.77,West,273,6.0,8.0,32,0.00,CLR,CLR,0.00,WeatherDisplay:10.34,2013-11-17 20:38:00,
2013-11-17 13:43:00,45.5,16.6,29.77,WNW,298,9.0,9.0,31,0.00,CLR,CLR,0.00,WeatherDisplay:10.34,2013-11-17 20:43:00,
2013-11-17 13:48:00,45.9,16.2,29.77,West,259,7.0,7.0,30,0.00,CLR,CLR,0.00,WeatherDisplay:10.34,2013-11-17 20:48:00,
2013-11-17 13:53:00,46.1,15.6,29.77,West,277,6.0,7.0,29,0.00,CLR,CLR,0.00,WeatherDisplay:10.34,2013-11-17 20:53:00,
2013-11-17 13:58:00,46.5,15.9,29.77,WSW,247,14.0,14.0,29,0.00,CLR,CLR,0.00,WeatherDisplay:10.34,2013-11-17 20:58:00,
2013-11-17 14:03:00,46.9,16.3,29.77,WSW,250,16.0,16.0,29,0.00,CLR,CLR,0.00,WeatherDisplay:10.34,2013-11-17 21:03:00,
2013-11-17 14:09:00,46.7,15.3,29.77,SW,225,21.0,25.0,28,0.00,CLR,CLR,0.00,WeatherDisplay:10.34,2013-11-17 21:09:00,
2013-11-17 14:14:00,46.7,15.3,29.77,SW,231,28.0,37.0,28,0.00,CLR,CLR,0.00,WeatherDisplay:10.34,2013-11-17 21:14:00,
2013-11-17 14:19:00,46.4,15.8,29.77,SW,236,26.0,26.0,29,0.00,CLR,CLR,0.00,WeatherDisplay:10.34,2013-11-17 21:19:00,
2013-11-17 14:24:00,46.2,14.8,29.77,SW,221,18.0,23.0,28,0.00,CLR,CLR,0.00,WeatherDisplay:10.34,2013-11-17 21:24:00,
2013-11-17 14:29:00,46.0,15.5,29.77,WSW,254,19.0,23.0,29,0.00,CLR,CLR,0.00,WeatherDisplay:10.34,2013-11-17 21:29:00,
2013-11-17 14:34:00,45.8,15.3,29.77,WSW,243,16.0,16.0,29,0.00,CLR,CLR,0.00,WeatherDisplay:10.34,2013-11-17 21:34:00,
2013-11-17 14:39:00,45.7,15.2,29.77,WSW,254,15.0,15.0,29,0.00,CLR,CLR,0.00,WeatherDisplay:10.34,2013-11-17 21:39:00,
2013-11-17 14:44:00,45.6,15.1,29.78,WNW,288,16.0,16.0,29,0.00,CLR,CLR,0.00,WeatherDisplay:10.34,2013-11-17 21:44:00,
2013-11-17 14:49:00,45.4,14.9,29.78,WNW,291,19.0,22.0,29,0.00,CLR,CLR,0.00,WeatherDisplay:10.34,2013-11-17 21:49:00,
2013-11-17 14:54:00,45.2,14.8,29.78,SW,234,25.0,25.0,29,0.00,CLR,CLR,0.00,WeatherDisplay:10.34,2013-11-17 21:54:00,
2013-11-17 14:59:00,45.2,14.8,29.78,SW,230,28.0,28.0,29,0.00,CLR,CLR,0.00,WeatherDisplay:10.34,2013-11-17 21:59:00,
2013-11-17 15:04:00,45.1,13.9,29.78,WSW,255,22.0,23.0,28,0.00,CLR,CLR,0.00,WeatherDisplay:10.34,2013-11-17 22:04:00,
2013-11-17 15:09:00,45.0,14.6,29.78,West,264,21.0,21.0,29,0.00,CLR,CLR,0.00,WeatherDisplay:10.34,2013-11-17 22:09:00,
2013-11-17 15:14:00,44.9,14.5,29.79,SW,234,16.0,20.0,29,0.00,CLR,CLR,0.00,WeatherDisplay:10.34,2013-11-17 22:14:00,
2013-11-17 15:19:00,44.9,14.5,29.79,West,261,19.0,19.0,29,0.00,CLR,CLR,0.00,WeatherDisplay:10.34,2013-11-17 22:19:00,
2013-11-17 15:24:00,44.9,13.7,29.79,WSW,244,15.0,15.0,28,0.00,CLR,CLR,0.00,WeatherDisplay:10.34,2013-11-17 22:24:00,
2013-11-17 15:29:00,44.9,14.5,29.79,West,259,12.0,16.0,29,0.00,CLR,CLR,0.00,WeatherDisplay:10.34,2013-11-17 22:29:00,
2013-11-17 15:35:00,44.9,13.7,29.80,SW,231,19.0,19.0,28,0.00,CLR,CLR,0.00,WeatherDisplay:10.34,2013-11-17 22:35:00,
2013-11-17 15:40:00,44.7,13.5,29.80,West,265,19.0,23.0,28,0.00,CLR,CLR,0.00,WeatherDisplay:10.34,2013-11-17 22:40:00,
2013-11-17 15:45:00,44.4,13.3,29.80,WNW,288,10.0,13.0,28,0.00,SCT,SCT,0.00,WeatherDisplay:10.34,2013-11-17 22:45:00,
2013-11-17 15:50:00,44.0,13.7,29.81,WSW,240,19.0,24.0,29,0.00,OVC,OVC,0.00,WeatherDisplay:10.34,2013-11-17 22:50:00,
2013-11-17 15:55:00,43.6,14.2,29.81,WSW,255,20.0,25.0,30,0.00,CLR,CLR,0.00,WeatherDisplay:10.34,2013-11-17 22:55:00,
2013-11-17 16:00:00,43.4,14.0,29.81,SW,214,22.0,22.0,30,0.00,CLR,CLR,0.00,WeatherDisplay:10.34,2013-11-17 23:00:00,
2013-11-17 16:05:00,43.2,13.8,29.81,WSW,252,18.0,18.0,30,0.00,CLR,CLR,0.00,WeatherDisplay:10.34,2013-11-17 23:05:00,
2013-11-17 16:10:00,43.0,14.4,29.82,WSW,245,17.0,17.0,31,0.00,CLR,CLR,0.00,WeatherDisplay:10.34,2013-11-17 23:10:00,
2013-11-17 16:15:00,42.9,14.3,29.82,SW,236,23.0,24.0,31,0.00,CLR,CLR,0.00,WeatherDisplay:10.34,2013-11-17 23:15:00,
2013-11-17 16:20:00,42.7,14.1,29.82,WSW,246,19.0,20.0,31,0.00,FEW,FEW,0.00,WeatherDisplay:10.34,2013-11-17 23:20:00,
2013-11-17 16:25:00,42.5,13.9,29.82,WSW,242,20.0,20.0,31,0.00,OVC,OVC,0.00,WeatherDisplay:10.34,2013-11-17 23:25:00,
2013-11-17 16:30:00,42.2,14.4,29.83,WSW,251,6.0,6.0,32,0.00,OVC,OVC,0.00,WeatherDisplay:10.34,2013-11-17 23:30:00,
2013-11-17 16:35:00,41.8,14.1,29.83,WSW,248,9.0,14.0,32,0.00,OVC,OVC,0.00,WeatherDisplay:10.34,2013-11-17 23:35:00,
2013-11-17 16:40:00,41.6,14.6,29.83,West,265,13.0,14.0,33,0.00,OVC,OVC,0.00,WeatherDisplay:10.34,2013-11-17 23:40:00,
2013-11-17 16:45:00,41.4,14.4,29.83,WSW,241,17.0,17.0,33,0.00,OVC,OVC,0.00,WeatherDisplay:10.34,2013-11-17 23:45:00,
2013-11-17 16:50:00,41.0,15.4,29.83,WSW,248,16.0,16.0,35,0.00,OVC,OVC,0.00,WeatherDisplay:10.34,2013-11-17 23:50:00,
2013-11-17 16:55:00,40.9,14.6,29.83,West,271,7.0,12.0,34,0.00,OVC,OVC,0.00,WeatherDisplay:10.34,2013-11-17 23:55:00,
2013-11-17 17:00:00,40.8,14.6,29.83,WSW,243,16.0,16.0,34,0.00,CLR,CLR,0.00,WeatherDisplay:10.34,2013-11-18 00:00:00,
2013-11-17 17:05:00,40.7,15.1,29.83,SW,225,12.0,12.0,35,0.00,CLR,CLR,0.00,WeatherDisplay:10.34,2013-11-18 00:05:00,
2013-11-17 17:10:00,40.6,15.7,29.84,WSW,244,9.0,10.0,36,0.00,CLR,CLR,0.00,WeatherDisplay:10.34,2013-11-18 00:10:00,
2013-11-17 17:15:00,40.4,15.5,29.84,WSW,249,15.0,15.0,36,0.00,CLR,CLR,0.00,WeatherDisplay:10.34,2013-11-18 00:15:00,
2013-11-17 17:20:00,40.3,16.1,29.84,West,275,8.0,9.0,37,0.00,CLR,CLR,0.00,WeatherDisplay:10.34,2013-11-18 00:20:00,
2013-11-17 17:25:00,40.2,16.0,29.84,WSW,242,7.0,8.0,37,0.00,CLR,CLR,0.00,WeatherDisplay:10.34,2013-11-18 00:25:00,
2013-11-17 17:30:00,40.1,15.9,29.84,WSW,245,4.0,4.0,37,0.00,CLR,CLR,0.00,WeatherDisplay:10.34,2013-11-18 00:30:00,
2013-11-17 17:35:00,39.8,15.6,29.84,WSW,237,8.0,8.0,37,0.00,CLR,CLR,0.00,WeatherDisplay:10.34,2013-11-18 00:35:00,
2013-11-17 17:40:00,39.6,16.0,29.85,SW,223,7.0,9.0,38,0.00,CLR,CLR,0.00,WeatherDisplay:10.34,2013-11-18 00:40:00,
2013-11-17 17:45:00,39.5,16.0,29.85,SW,217,11.0,11.0,38,0.00,CLR,CLR,0.00,WeatherDisplay:10.34,2013-11-18 00:45:00,
2013-11-17 17:50:00,39.6,16.0,29.85,SW,234,12.0,12.0,38,0.00,CLR,CLR,0.00,WeatherDisplay:10.34,2013-11-18 00:50:00,
2013-11-17 17:55:00,39.8,16.2,29.86,SSW,210,12.0,12.0,38,0.00,CLR,CLR,0.00,WeatherDisplay:10.34,2013-11-18 00:55:00,
2013-11-17 18:00:00,39.8,15.6,29.86,SW,215,7.0,9.0,37,0.00,CLR,CLR,0.00,WeatherDisplay:10.34,2013-11-18 01:00:00,
2013-11-17 18:05:00,39.6,16.0,29.86,SW,222,6.0,8.0,38,0.00,CLR,CLR,0.00,WeatherDisplay:10.34,2013-11-18 01:05:00,
2013-11-17 18:10:00,39.2,15.7,29.86,SSW,198,6.0,7.0,38,0.00,CLR,CLR,0.00,WeatherDisplay:10.34,2013-11-18 01:10:00,
2013-11-17 18:15:00,38.7,15.8,29.86,SSW,207,9.0,9.0,39,0.00,CLR,CLR,0.00,WeatherDisplay:10.34,2013-11-18 01:15:00,
2013-11-17 18:20:00,38.2,16.0,29.86,SW,226,8.0,9.0,40,0.00,CLR,CLR,0.00,WeatherDisplay:10.34,2013-11-18 01:20:00,
2013-11-17 18:25:00,38.1,15.9,29.86,SW,235,9.0,9.0,40,0.00,CLR,CLR,0.00,WeatherDisplay:10.34,2013-11-18 01:25:00,
2013-11-17 18:30:00,38.1,15.9,29.86,SSW,210,6.0,8.0,40,0.00,CLR,CLR,0.00,WeatherDisplay:10.34,2013-11-18 01:30:00,
2013-11-17 18:35:00,38.6,16.3,29.86,SSW,200,10.0,10.0,40,0.00,CLR,CLR,0.00,WeatherDisplay:10.34,2013-11-18 01:35:00,
2013-11-17 18:40:00,38.7,15.8,29.86,South,188,8.0,9.0,39,0.00,CLR,CLR,0.00,WeatherDisplay:10.34,2013-11-18 01:40:00,
2013-11-17 18:45:00,38.5,16.2,29.86,SSW,198,9.0,9.0,40,0.00,CLR,CLR,0.00,WeatherDisplay:10.34,2013-11-18 01:45:00,
2013-11-17 18:50:00,38.2,16.0,29.86,South,172,9.0,9.0,40,0.00,CLR,CLR,0.00,WeatherDisplay:10.34,2013-11-18 01:50:00,
2013-11-17 18:55:00,37.9,15.7,29.86,SSW,192,4.0,7.0,40,0.00,CLR,CLR,0.00,WeatherDisplay:10.34,2013-11-18 01:55:00,
2013-11-17 19:00:00,38.2,16.0,29.86,South,172,12.0,12.0,40,0.00,CLR,CLR,0.00,WeatherDisplay:10.34,2013-11-18 02:00:00,
2013-11-17 19:05:00,37.4,15.2,29.86,SSE,165,6.0,6.0,40,0.00,CLR,CLR,0.00,WeatherDisplay:10.34,2013-11-18 02:05:00,
2013-11-17 19:10:00,36.8,15.3,29.87,South,189,0.0,0.0,41,0.00,CLR,CLR,0.00,WeatherDisplay:10.34,2013-11-18 02:10:00,
2013-11-17 19:15:00,36.6,15.1,29.87,South,183,3.0,3.0,41,0.00,CLR,CLR,0.00,WeatherDisplay:10.34,2013-11-18 02:15:00,
2013-11-17 19:20:00,36.4,15.5,29.87,SSE,155,6.0,6.0,42,0.00,CLR,CLR,0.00,WeatherDisplay:10.34,2013-11-18 02:20:00,
2013-11-17 19:25:00,35.7,15.4,29.87,South,178,6.0,6.0,43,0.00,CLR,CLR,0.00,WeatherDisplay:10.34,2013-11-18 02:25:00,
2013-11-17 19:30:00,35.0,14.7,29.87,SSE,168,4.0,4.0,43,0.00,CLR,CLR,0.00,WeatherDisplay:10.34,2013-11-18 02:30:00,
2013-11-17 19:35:00,34.5,14.8,29.87,SW,236,4.0,5.0,44,0.00,CLR,CLR,0.00,WeatherDisplay:10.34,2013-11-18 02:35:00,
2013-11-17 19:40:00,34.4,15.2,29.87,SW,223,6.0,7.0,45,0.00,CLR,CLR,0.00,WeatherDisplay:10.34,2013-11-18 02:40:00,
2013-11-17 19:45:00,34.4,15.2,29.87,SSW,192,10.0,10.0,45,0.00,CLR,CLR,0.00,WeatherDisplay:10.34,2013-11-18 02:45:00,
2013-11-17 19:50:00,35.4,16.1,29.88,SSW,193,10.0,10.0,45,0.00,CLR,CLR,0.00,WeatherDisplay:10.34,2013-11-18 02:50:00,
2013-11-17 19:55:00,35.1,15.3,29.88,SSW,204,9.0,9.0,44,0.00,CLR,CLR,0.00,WeatherDisplay:10.34,2013-11-18 02:55:00,
2013-11-17 20:00:00,34.4,15.2,29.88,South,182,13.0,13.0,45,0.00,CLR,CLR,0.00,WeatherDisplay:10.34,2013-11-18 03:00:00,
2013-11-17 20:05:00,34.9,15.7,29.88,SW,217,11.0,11.0,45,0.00,CLR,CLR,0.00,WeatherDisplay:10.34,2013-11-18 03:05:00,
2013-11-17 20:10:00,34.6,15.4,29.88,SSW,199,7.0,7.0,45,0.00,CLR,CLR,0.00,WeatherDisplay:10.34,2013-11-18 03:10:00,
2013-11-17 20:15:00,34.2,15.0,29.88,SSW,202,10.0,12.0,45,0.00,CLR,CLR,0.00,WeatherDisplay:10.34,2013-11-18 03:15:00,
2013-11-17 20:20:00,33.9,15.3,29.88,SSW,203,6.0,7.0,46,0.00,CLR,CLR,0.00,WeatherDisplay:10.34,2013-11-18 03:20:00,
2013-11-17 20:25:00,33.5,15.4,29.88,SSW,206,10.0,10.0,47,0.00,CLR,CLR,0.00,WeatherDisplay:10.34,2013-11-18 03:25:00,
2013-11-17 20:30:00,33.4,15.3,29.88,SW,219,7.0,9.0,47,0.00,CLR,CLR,0.00,WeatherDisplay:10.34,2013-11-18 03:30:00,
2013-11-17 20:35:00,33.4,15.3,29.88,SSW,207,5.0,7.0,47,0.00,CLR,CLR,0.00,WeatherDisplay:10.34,2013-11-18 03:35:00,
2013-11-17 20:40:00,33.2,15.1,29.88,SSW,198,8.0,8.0,47,0.00,CLR,CLR,0.00,WeatherDisplay:10.34,2013-11-18 03:40:00,
2013-11-17 20:45:00,32.9,15.3,29.89,SSW,208,7.0,8.0,48,0.00,CLR,CLR,0.00,WeatherDisplay:10.34,2013-11-18 03:45:00,
2013-11-17 20:50:00,32.6,15.1,29.89,SSW,192,8.0,8.0,48,0.00,CLR,CLR,0.00,WeatherDisplay:10.34,2013-11-18 03:50:00,
2013-11-17 20:55:00,32.3,15.3,29.88,SW,223,5.0,5.0,49,0.00,CLR,CLR,0.00,WeatherDisplay:10.34,2013-11-18 03:55:00,
2013-11-17 21:00:00,32.0,15.0,29.88,SW,229,7.0,7.0,49,0.00,CLR,CLR,0.00,WeatherDisplay:10.34,2013-11-18 04:00:00,
2013-11-17 21:05:00,31.6,15.1,29.88,SW,229,8.0,8.0,50,0.00,CLR,CLR,0.00,WeatherDisplay:10.34,2013-11-18 04:05:00,
2013-11-17 21:10:00,31.2,15.2,29.88,SSW,205,6.0,7.0,51,0.00,CLR,CLR,0.00,WeatherDisplay:10.34,2013-11-18 04:10:00,
2013-11-17 21:15:00,30.7,14.7,29.88,South,184,10.0,10.0,51,0.00,CLR,CLR,0.00,WeatherDisplay:10.34,2013-11-18 04:15:00,
2013-11-17 21:20:00,30.4,15.3,29.89,SSW,205,8.0,8.0,53,0.00,CLR,CLR,0.00,WeatherDisplay:10.34,2013-11-18 04:20:00,
2013-11-17 21:25:00,30.3,15.2,29.89,SSW,200,8.0,8.0,53,0.00,CLR,CLR,0.00,WeatherDisplay:10.34,2013-11-18 04:25:00,
2013-11-17 21:30:00,30.6,15.5,29.88,SSW,202,6.0,6.0,53,0.00,CLR,CLR,0.00,WeatherDisplay:10.34,2013-11-18 04:30:00,
2013-11-17 21:35:00,30.8,15.7,29.88,SSW,193,9.0,9.0,53,0.00,CLR,CLR,0.00,WeatherDisplay:10.34,2013-11-18 04:35:00,
2013-11-17 21:40:00,31.7,16.9,29.89,SSW,200,9.0,9.0,54,0.00,CLR,CLR,0.00,WeatherDisplay:10.34,2013-11-18 04:40:00,
2013-11-17 21:45:00,33.0,17.3,29.89,SSW,205,9.0,10.0,52,0.00,CLR,CLR,0.00,WeatherDisplay:10.34,2013-11-18 04:45:00,
2013-11-17 21:50:00,34.1,17.8,29.89,South,181,11.0,11.0,51,0.00,CLR,CLR,0.00,WeatherDisplay:10.34,2013-11-18 04:50:00,
2013-11-17 21:55:00,34.6,17.8,29.89,South,187,11.0,12.0,50,0.00,CLR,CLR,0.00,WeatherDisplay:10.34,2013-11-18 04:55:00,
2013-11-17 22:00:00,35.1,17.8,29.89,South,184,11.0,12.0,49,0.00,CLR,CLR,0.00,WeatherDisplay:10.34,2013-11-18 05:00:00,
2013-11-17 22:01:00,35.1,17.8,29.89,South,174,12.0,12.0,49,0.00,CLR,CLR,0.00,WeatherDisplay:10.34,2013-11-18 05:01:00,
2013-11-17 22:02:00,35.1,17.8,29.89,South,182,13.0,14.0,49,0.00,CLR,CLR,0.00,WeatherDisplay:10.34,2013-11-18 05:02:00,
2013-11-17 22:04:00,35.5,18.2,29.89,South,191,15.0,15.0,49,0.00,CLR,CLR,0.00,WeatherDisplay:10.34,2013-11-18 05:04:00,
2013-11-17 22:09:00,35.9,18.6,29.89,SSW,196,11.0,12.0,49,0.00,CLR,CLR,0.00,WeatherDisplay:10.34,2013-11-18 05:09:00,
2013-11-17 22:14:00,35.8,18.5,29.89,SSW,195,10.0,10.0,49,0.00,CLR,CLR,0.00,WeatherDisplay:10.34,2013-11-18 05:14:00,
2013-11-17 22:19:00,36.1,18.8,29.89,South,188,11.0,11.0,49,0.00,CLR,CLR,0.00,WeatherDisplay:10.34,2013-11-18 05:19:00,
2013-11-17 22:24:00,35.9,18.6,29.89,South,169,10.0,10.0,49,0.00,CLR,CLR,0.00,WeatherDisplay:10.34,2013-11-18 05:24:00,
2013-11-17 22:29:00,34.7,17.9,29.89,South,180,11.0,0.0,50,0.00,CLR,CLR,0.00,WeatherDisplay:10.34,2013-11-18 05:29:00,
2013-11-17 22:34:00,35.2,17.9,29.89,SSE,149,13.0,13.0,49,0.00,CLR,CLR,0.00,WeatherDisplay:10.34,2013-11-18 05:34:00,
2013-11-17 22:39:00,35.7,17.9,29.89,SSE,161,9.0,0.0,48,0.00,CLR,CLR,0.00,WeatherDisplay:10.34,2013-11-18 05:39:00,
2013-11-17 22:44:00,36.1,17.8,29.89,South,179,9.0,9.0,47,0.00,CLR,CLR,0.00,WeatherDisplay:10.34,2013-11-18 05:44:00,
2013-11-17 22:49:00,36.0,16.7,29.89,South,182,10.0,10.0,45,0.00,CLR,CLR,0.00,WeatherDisplay:10.34,2013-11-18 05:49:00,
2013-11-17 22:54:00,36.0,16.2,29.89,SSE,165,10.0,10.0,44,0.00,CLR,CLR,0.00,WeatherDisplay:10.34,2013-11-18 05:54:00,
2013-11-17 22:59:00,36.1,15.7,29.89,SSE,165,8.0,9.0,43,0.00,CLR,CLR,0.00,WeatherDisplay:10.34,2013-11-18 05:59:00,
2013-11-17 23:04:00,35.7,15.4,29.89,SSE,152,11.0,11.0,43,0.00,CLR,CLR,0.00,WeatherDisplay:10.34,2013-11-18 06:04:00,
2013-11-17 23:09:00,35.2,15.4,29.89,SSE,164,7.0,7.0,44,0.00,CLR,CLR,0.00,WeatherDisplay:10.34,2013-11-18 06:09:00,
2013-11-17 23:14:00,35.1,15.9,29.89,SSE,150,13.0,15.0,45,0.00,CLR,CLR,0.00,WeatherDisplay:10.34,2013-11-18 06:14:00,
2013-11-17 23:19:00,36.4,16.5,29.89,SSE,153,12.0,12.0,44,0.00,CLR,CLR,0.00,WeatherDisplay:10.34,2013-11-18 06:19:00,
2013-11-17 23:24:00,36.6,16.7,29.89,SSE,160,8.0,8.0,44,0.00,CLR,CLR,0.00,WeatherDisplay:10.34,2013-11-18 06:24:00,
2013-11-17 23:29:00,36.3,16.4,29.89,SSE,154,11.0,11.0,44,0.00,CLR,CLR,0.00,WeatherDisplay:10.34,2013-11-18 06:29:00,
2013-11-17 23:34:00,35.7,15.9,29.90,SSE,167,8.0,9.0,44,0.00,CLR,CLR,0.00,WeatherDisplay:10.34,2013-11-18 06:34:00,
2013-11-17 23:39:00,35.0,15.8,29.90,South,171,7.0,7.0,45,0.00,CLR,CLR,0.00,WeatherDisplay:10.34,2013-11-18 06:39:00,
2013-11-17 23:44:00,34.4,15.7,29.89,SSE,150,6.0,6.0,46,0.00,CLR,CLR,0.00,WeatherDisplay:10.34,2013-11-18 06:44:00,
2013-11-17 23:49:00,34.0,15.9,29.89,SSE,165,3.0,3.0,47,0.00,CLR,CLR,0.00,WeatherDisplay:10.34,2013-11-18 06:49:00,
2013-11-17 23:54:00,33.8,15.7,29.89,SE,141,7.0,8.0,47,0.00,CLR,CLR,0.00,WeatherDisplay:10.34,2013-11-18 06:54:00,
2013-11-17 23:59:00,33.7,15.6,29.89,SSE,151,3.0,3.0,47,0.00,CLR,CLR,0.00,WeatherDisplay:10.34,2013-11-18 06:59:00,